Tracking 19644 objects as of 26-Apr-2019
HD Live streaming from Space Station
objects crossing your sky now

THORAD AGENA D DEB

Track THORAD AGENA D DEB now!
10-day predictions


NORAD ID: 42512
Int'l Code: 1970-025RS
Perigee: 1,098.4 km
Apogee: 1,108.7 km
Inclination: 100.0 °
Period: 107.2 minutes
Semi major axis: 7474 km
RCS: Unknown
Launch date: April 8, 1970
Source: United States (US)
Launch site: AIR FORCE WESTERN TEST RANGE (AFWTR)

Note: This is SATELLITE DEBRIS
aabbcc
Your satellite tracking list
Your tracking list is empty




NASA's NSSDC Master Catalog

Two Line Element Set (TLE):
1 42512U 70025RS  19115.56136782 -.00000035 +00000-0 +17187-4 0  9990
2 42512 099.9823 020.9889 0006875 250.4409 231.2676 13.43464675265881
Source of the keplerian elements: AFSPC